Погода в Славгороде

Хотите узнать прогноз погоды в Славгороде? Тогда Вам сюда: Погода в Славгороде

Поиск расширенной информации на нашем сайте:

Полезная информация:

Новости сайта



02.01.2020
Опубликован Долгосрочный прогноз погоды по городам России и ближнего зарубежья на январь 2020 года.
Карты: Прогноз на январь и февраль 2020 года, Сравнение прогнозируемой аномалии приземной температуры воздуха на январь 2020 года по разным моделям.




Погода в Славгороде - сегодня

Время (UTC), дата Ветер
(°,м/с) 
Видим.   Явления Облачность Т
(°С)
Тd
(°С)
f(%) Тe
(°С)
Pmin
(гПа)
dP
(гПа)
Po
(мм)
O2
(г/м3)
Тmin Tmax R s Состояние
почвы
15 09.08.20 090 (В) 20000 м    8/0 средняя, верхняя 
[Ac trans|Ci sp]
+23.9 +11.4 45 +27  1001  -0.5  740  272           
18 09.08.20 090 (В) 20000 м    6/0 верхняя 
[Ci sp]
+21.8 +12.5 55 +27  1000.7  -0.4  740  274           
21 09.08.20 100 (В) 20000 м    6/0 средняя, верхняя 
[Ac trans|Ci sp]
+20.8 +15 69 +30  999.4  -1.3  739  273           
00 10.08.20 100 (В) 20000 м    10/0 средняя, верхняя 
[Ac trans|Ci sp]
+20.1 +15.2 73 +30  999.2  -0.3  739  274  +19.3        сухая 
03 10.08.20 220 (ЮЗ) 20000 м  слаб. ливневой дождь  10/6 630 м кучево-дожд., средняя 
[Cb cap|Ac trans]
+21.4 +15.8 70 +32  999.7  0.6  739  273           
06 10.08.20 160 (Ю) 20000 м  {ливн. осадки}  8/3 600 м кучево-дожд., средняя 
[Cb cap|Ac trans]
+27.3 +14.4 45 +35  999.5  0.1  739  268           
09 10.08.20 160 (Ю) 20000 м    8/3 600 м кучево-дожд., средняя 
[Cb calv|Ac trans]
+29.9 +11.7 33 +34  998.6  -0.8  738  266           
12 10.08.20 160 (Ю) 20000 м    8/3 600 м кучево-дожд., средняя, верхняя 
[Cb cap|Ac trans|Ci sp]
+27.5 +13 41 +33  998.4  -0.3  738  268    +31  0.0     
15 10.08.20 140 (ЮВ) 20000 м    10/3 600 м кучево-дожд., средняя, верхняя 
[Cb cap|Ac trans|Ci sp]
+23.3 +13.6 54 +30  999.1  0.5  739  272           
18 10.08.20 160 (Ю) 20000 м    ясно 
+19.5 +12.7 65 +26  998.7  -0.6  738  275           
21 10.08.20 140 (ЮВ) 20000 м    1/0 верхняя 
[Ci sp]
+17.4 +12.7 74 +23  998.1  -0.7  738  277           
00 11.08.20 120 (ЮВ) 20000 м    6/3 600 м кучево-дожд., верхняя 
[Cb cap|Ci sp]
+17.5 +12.9 74 +24  997.5  -0.6  737  277  +16.5        сухая 
03 11.08.20 130 (ЮВ) 20000 м    10/3 600 м кучево-дожд., средняя, верхняя 
[Cb cap|Ac trans|Ci sp]
+23.7 +15 58 +33  997.1  -0.1  737  270           
06 11.08.20 160 (Ю) 20000 м  {гроза}  8/3 600 м кучево-дожд., верхняя 
[Cb cap|Ci sp]
+28.6 +10.6 33 +31  996.8  737  267           
09 11.08.20 170 (Ю) 5{11}  20000 м    8/4 1000 м верхняя 
[Cu med, cong|Ci sp]
+29.1 +13.1 37 +35  996  -0.8  737  266           
12 11.08.20 230 (ЮЗ) 3{10}  20000 м    4/3 600 м верхняя 
[Cu med, cong|Ci sp]
+31.1 +5.2 20 +31  995.9  737  266    +31.2       
15 11.08.20 300 (СЗ) 20000 м    3/1 600 м кучево-дожд., верхняя 
[Cb cap|Ci sp]
+23.3 +6.4 34 +23  997.4  1.1  737  273           
18 11.08.20 340 (С) 20000 м    1/0 верхняя 
[Ci sp]
+18.7 +9.7 56 +21  997.3  -0.3  737  276           
21 11.08.20 290 (З) 20000 м    9/0 средняя 
[Ac trans]
+17.6 +9.6 59 +20  997.1  -0.3  737  277           
00 12.08.20 290 (З) 20000 м  {ливн. осадки}  9/3 600 м кучево-дожд., средняя, верхняя 
[Cb cap|Ac trans|Ci sp]
+16.8 +12.2 74 +22  997.4  0.3  737  277  +16.5    0.9    влажная 
03 12.08.20 280 (З) 20000 м  гроза без осадков{ливн. осадки}  10/8 660 м кучево-дожд., верхняя 
[Cb cap|Ci sp]
+20.9 +13.8 64 +28  997.8  0.6  738  273           
06 12.08.20 200 (Ю) 20000 м  {гроза, ливн. осадки}  10/4 600 м кучево-дожд., средняя, верхняя 
[Cb cap|Ac trans|Ci sp]
+22.8 +13.4 55 +29  998.2  0.4  738  272           
09 12.08.20 190 (Ю) 6-11{11}  20000 м    10/3 600 м кучево-дожд., средняя, верхняя 
[Cb cap|Ac trans|Ci sp]
+23.5 +11.3 46 +27  998.3  0.1  738  272           
12 12.08.20 210 (ЮЗ) 5{11}  20000 м    8/3 600 м кучево-дожд., средняя, верхняя 
[Cb cap|Ac trans|Ci sp]
+22.8 +12 51 +27  997.7  -0.6  738  272    +23.7     
15 12.08.20 200 (Ю) 20000 м    8/3 600 м кучево-дожд., верхняя 
[Cb cap|Ci sp]
+18.3 +12.5 69 +24  998.6  0.7  738  276           
Время (UTC), дата Ветер
(°,м/с) 
Видим.   Явления Облачность Т
(°С)
Тd
(°С)
f(%) Тe
(°С)
Pmin
(гПа)
dP
(гПа)
Po
(мм)
O2
(г/м3)
Тmin Tmax R s Состояние
почвы

Для получения пояснительной информации подведите курсор к названию столбца.

ПОГОДА в Славгороде - архив

Всё, что Вы хотите узнать о погоде в Славгороде - удобно и подробно!

Выберите нужную дату (начиная с 1 января 2019* года) и нажмите кнопку "Найти".
Будут отображены архивные сводки погоды по пункту Славгород, начиная с указанной даты.


Отображать данные в формате CSV (для использования в таблицах Excel)


Внимание! Наш архив погоды предназначен исключительно для личного некоммерческого использования в познавательных целях. Если Вам необходимы официальные справки о состоянии погоды (для производственных, юридических, коммерческих и т.п. целей), обращайтесь в органы Росгидромета.

*Примечание: данная дата относится к архиву по метеостанциям СССР (Россия, СНГ, Балтия).
Архив по метеостанциям Зарубежной Европы и Азии (кроме Китая) хранится 10 дней, по другим регионам земного шара (Китай, Африка, Америка, Австралия, Океания) - 1 день.

Славгород - район местоположения метеостанции


Название, широта, долгота, высота метеостанции:
Славгород 53°ш. 78.6°д. 126 м над ур. моря [Российская Федерация]

Дополнительная информация

В oтличие oт бoльшинства пoгoдных сайтoв мы публикуем пoдрoбную метеoинфoрмацию в детальнoм прoфессиoнальнoм фoрмате.

Характеристики температуры и влажнoсти вoздуха измеряются на высoте 2 м в тени вдали oт зданий и деревьев.
Скoрoсть ветра измеряется на высoте 10 м (на урoвне рoста челoвека скoрoсть ветра ниже в 1.5-2 раза). Если метеoстанция нахoдится в гoрoде или в лесу, тo скoрoсть ветра занижена на 2-4 м/с пo сравнению с oткрытым местoм. Скoрoсть ветра над акватoриями крупных рек и oзёр, а также на вершинах хoлмoв на 2-5 м/с выше, чем в oбычных услoвиях.
Атмoсфернoе давление в разных тoчках местнoсти мoжет значительнo oтличаться oт давления на метеoстанции, в зависимoсти oт услoвий рельефа (при пoдъёме на 10 м давление пoнижается примернo на 1 мм рт.ст.).